Vernal, UT

11:49 PM MDT on April 22, 2017 (GMT -0600)
Vernal

Weather History for KVEL - May, 2013

Change the Weather History Date:

Friday, May 24, 2013

  Actual Average Record
Temperature  
Mean Temperature 64 °F 59 °F  
Max Temperature 78 °F 73 °F 89 °F (2003)
Min Temperature 49 °F 45 °F 31 °F (1946)
Degree Days  
Heating Degree Days 1 6  
Month to date heating degree days 183 231  
Since 1 July heating degree days 7527 7110  
Cooling Degree Days 0 0  
Month to date cooling degree days 8 0  
Year to date cooling degree days 8 0  
Growing Degree Days 14 (Base 50)    
Moisture  
Dew Point 23 °F    
Average Humidity 25    
Maximum Humidity 38    
Minimum Humidity 11    
Precipitation  
Precipitation 0.00 in 0.02 in 0.43 in (1928)
Month to date precipitation 1.13 0.71  
Year to date precipitation 3.65 3.23  
Sea Level Pressure  
Sea Level Pressure 29.81 in    
Wind  
Wind Speed 6 mph (WNW)    
Max Wind Speed 21 mph    
Max Gust Speed 35 mph    
Visibility 10 miles    
Events      
T = Trace of Precipitation, MM = Missing Value Source: NWS Daily Summary

Daily Weather History Graph

Daily Weather History Graph

Search for Another Location

Airport or City:

Trip Planner

Search our weather history database for the weather conditions in past years. The results will help you decide how hot, cold, wet, or windy it might be!

Date:

Astronomy

May. 24, 2013 Rise Set
Actual Time 5:54 AM MDT 8:36 PM MDT
Civil Twilight 5:22 AM MDT 9:08 PM MDT
Nautical Twilight 4:42 AM MDT 9:47 PM MDT
Astronomical Twilight 3:57 AM MDT 10:33 PM MDT
Moon 8:21 PM MDT (5/24) 5:29 AM MDT (5/24)
Length of Visible Light 15h 45m
Length of Day
14h 41m
Full, 100% of the Moon is Illuminated
May 24
Full
May 24
Full
May 31
Last Quarter
Jun 8
New
Jun 16
First Quarter

Hourly Weather History & Observations

Time (MDT) Temp. Dew Point Humidity Pressure Visibility Wind Dir Wind Speed Gust Speed Precip Events Conditions
12:53 AM 66.0 °F 14.0 °F 13% 29.62 in 10.0 mi West 11.5 mph 19.6 mph N/A   Clear
1:53 AM 64.9 °F 15.1 °F 15% 29.65 in 10.0 mi West 13.8 mph 23.0 mph N/A   Clear
2:53 AM 62.1 °F 16.0 °F 17% 29.68 in 10.0 mi West 12.7 mph 20.7 mph N/A   Clear
3:53 AM 62.1 °F 19.0 °F 19% 29.71 in 10.0 mi West 12.7 mph 23.0 mph N/A   Clear
4:53 AM 57.0 °F 23.0 °F 27% 29.77 in 10.0 mi West 5.8 mph 17.3 mph N/A   Clear
5:53 AM 53.1 °F 24.1 °F 32% 29.84 in 10.0 mi NW 4.6 mph - N/A   Clear
6:53 AM 52.0 °F 26.1 °F 37% 29.89 in 10.0 mi Variable 3.5 mph - N/A   Clear
7:53 AM 55.9 °F 28.0 °F 34% 29.91 in 10.0 mi NNE 8.1 mph - N/A   Clear
8:53 AM 57.9 °F 28.9 °F 33% 29.93 in 10.0 mi East 6.9 mph - N/A   Clear
9:53 AM 61.0 °F 28.0 °F 29% 29.93 in 10.0 mi East 4.6 mph - N/A   Clear
10:53 AM 64.0 °F 26.1 °F 24% 29.90 in 10.0 mi SSE 3.5 mph - N/A   Clear
11:53 AM 66.0 °F 24.1 °F 20% 29.89 in 10.0 mi Calm Calm - N/A   Clear
12:53 PM 70.0 °F 21.9 °F 16% 29.86 in 10.0 mi Variable 4.6 mph - N/A   Clear
1:53 PM 73.0 °F 19.9 °F 14% 29.83 in 10.0 mi SW 11.5 mph 17.3 mph N/A   Clear
2:53 PM 73.9 °F 21.0 °F 14% 29.82 in 10.0 mi WSW 10.4 mph 20.7 mph N/A   Clear
3:53 PM 75.0 °F 19.9 °F 13% 29.80 in 10.0 mi West 9.2 mph 17.3 mph N/A   Clear
4:53 PM 75.0 °F 19.0 °F 12% 29.79 in 10.0 mi Variable 4.6 mph - N/A   Clear
5:53 PM 75.9 °F 18.0 °F 11% 29.79 in 10.0 mi Calm Calm - N/A   Clear
6:53 PM 75.0 °F 17.1 °F 11% 29.78 in 10.0 mi WNW 4.6 mph - N/A   Clear
7:53 PM 72.0 °F 19.0 °F 13% 29.78 in 10.0 mi Calm Calm - N/A   Clear
8:53 PM 63.0 °F 32.0 °F 31% 29.80 in 10.0 mi Calm Calm - N/A   Clear
9:53 PM 60.1 °F 30.9 °F 33% 29.82 in 10.0 mi West 4.6 mph - N/A   Clear
10:53 PM 57.9 °F 28.9 °F 33% 29.83 in 10.0 mi NNW 5.8 mph - N/A   Clear
11:53 PM 55.9 °F 27.0 °F 33% 29.81 in 10.0 mi NNW 3.5 mph - N/A   Clear